Location: Jarosław
(50.0191°N, 22.6835°E)
Time: 07:17:46
(UTC+02:00)

ISS - Visible Passes

Search period start: 27 May 2018 00:00
Search period end: 06 June 2018 00:00
Orbit: 402 x 407 km, 51.6° (Epoch: 27 May)

Date Brightness Start Highest point End Pass type
(mag) Time Alt. Az. Time Alt. Az. Time Alt. Az.
27 May -3.4 00:23:50 10° WNW 00:26:25 47° WSW 00:26:25 47° WSW visible
27 May -3.4 21:55:02 10° W 21:58:18 63° N 22:01:33 10° E visible
27 May -4.0 23:31:37 10° WNW 23:34:54 85° SSW 23:35:44 47° ESE visible
28 May -3.5 21:02:46 10° W 21:06:02 69° N 21:09:18 10° ENE visible
28 May -3.7 22:39:24 10° WNW 22:42:41 76° N 22:45:04 17° E visible
29 May -2.2 00:16:00 10° W 00:17:42 24° WSW 00:17:42 24° WSW visible
29 May -3.5 21:47:09 10° WNW 21:50:25 66° N 21:53:40 10° E visible
29 May -3.7 23:23:41 10° WNW 23:26:54 53° SSW 23:27:06 51° S visible
30 May -3.9 22:31:26 10° WNW 22:34:42 76° SSW 22:36:31 24° ESE visible
31 May -1.5 00:08:24 10° W 00:09:09 14° WSW 00:09:09 14° WSW visible
31 May -3.8 21:39:10 10° WNW 21:42:27 82° NNE 21:45:44 10° ESE visible
31 May -2.8 23:15:49 10° W 23:18:35 29° SW 23:18:35 29° SW visible
01 Jun -3.4 22:23:26 10° WNW 22:26:36 45° SSW 22:28:04 26° SSE visible
02 Jun -3.8 21:31:07 10° WNW 21:34:23 68° SSW 21:37:33 11° ESE visible
02 Jun -1.8 23:08:16 10° W 23:10:11 16° SW 23:10:11 16° SW visible
03 Jun -2.5 22:15:34 10° W 22:18:20 25° SW 22:19:42 19° S visible
04 Jun -3.1 21:23:05 10° W 21:26:11 39° SSW 21:29:14 10° SE visible
05 Jun -1.5 22:08:08 10° WSW 22:09:54 14° SW 22:11:26 11° SSW visible
